Weather History for Key West NAF, FL

Change the Weather History Date:

Monday, December 10, 2012

  Actual Average Record
Temperature  
Mean Temperature 80 °F -  
Max Temperature 84 °F 77 °F 84 °F (1993)
Min Temperature 77 °F 68 °F 55 °F (1962)
Cooling Degree Days 16    
Growing Degree Days 30 (Base 50)    
Moisture  
Dew Point 74 °F    
Average Humidity 86    
Maximum Humidity 90    
Minimum Humidity 74    
Precipitation  
Precipitation 0.00 in - - ()
Sea Level Pressure  
Sea Level Pressure 29.96 in    
Wind  
Wind Speed 8 mph (SE)    
Max Wind Speed 13 mph    
Max Gust Speed -    
Visibility 10 miles    
Events      
Averages and records for this station are not official NWS values.
T = Trace of Precipitation, MM = Missing Value Source: NWS Daily Summary

Daily Weather History Graph

Daily Weather History Graph

Search for Another Location

Airport:

Trip Planner

Search our weather history database for the weather conditions in past years. The results will help you decide how hot, cold, wet, or windy it might be!

Date:

Astronomy

Dec. 10, 2012 Rise Set
Actual Time 7:00 AM EST 5:39 PM EST
Civil Twilight 6:35 AM EST 6:04 PM EST
Nautical Twilight 6:07 AM EST 6:32 PM EST
Astronomical Twilight 5:39 AM EST 7:00 PM EST
Moon 3:54 AM EST (12/10) 3:18 PM EST (12/10)
Length of Visible Light 11h 28m
Length of Day
10h 38m
Waning Crescent, 10% of the Moon is Illuminated
Dec 10
Waning Crescent
Dec 13
New
Dec 20
First Quarter
Dec 28
Full
Jan 4
Last Quarter

Hourly Weather History & Observations

Time (EST) Temp. Heat Index Dew Point Humidity Pressure Visibility Wind Dir Wind Speed Gust Speed Precip Events Conditions
12:53 AM 77.0 °F - 73.9 °F 90% 30.01 in 10.0 mi East 8.1 mph - N/A   Mostly Cloudy
1:27 AM 77.0 °F - 73.4 °F 89% 30.00 in 10.0 mi East 6.9 mph - N/A   Scattered Clouds
1:53 AM 77.0 °F - 73.0 °F 88% 30.00 in 10.0 mi East 6.9 mph - N/A   Partly Cloudy
2:09 AM 77.0 °F - 73.4 °F 89% 30.00 in 10.0 mi ESE 5.8 mph - N/A   Mostly Cloudy
2:22 AM 77.0 °F - 73.4 °F 89% 29.99 in 10.0 mi ESE 6.9 mph - N/A   Mostly Cloudy
2:53 AM 77.0 °F - 73.0 °F 88% 29.98 in 10.0 mi ESE 6.9 mph - N/A   Scattered Clouds
3:53 AM 77.0 °F - 73.0 °F 88% 29.96 in 10.0 mi ESE 6.9 mph - N/A   Clear
4:53 AM 77.0 °F - 73.9 °F 90% 29.95 in 10.0 mi ESE 6.9 mph - N/A   Clear
5:53 AM 77.0 °F - 73.9 °F 90% 29.96 in 10.0 mi ESE 6.9 mph - N/A   Partly Cloudy
6:53 AM 77.0 °F - 73.9 °F 90% 29.98 in 10.0 mi SE 6.9 mph - N/A   Mostly Cloudy
7:53 AM 78.1 °F - 75.0 °F 90% 29.98 in 10.0 mi SE 9.2 mph - N/A   Mostly Cloudy
8:53 AM 79.0 °F - 75.0 °F 88% 29.99 in 10.0 mi SSE 9.2 mph - N/A   Mostly Cloudy
9:53 AM 80.1 °F 85.1 °F 75.0 °F 85% 30.00 in 10.0 mi SE 11.5 mph - N/A   Mostly Cloudy
10:53 AM 82.0 °F 87.9 °F 73.9 °F 76% 30.00 in 10.0 mi SSE 11.5 mph - N/A   Mostly Cloudy
11:53 AM 84.0 °F 91.9 °F 75.0 °F 74% 29.98 in 10.0 mi SSE 11.5 mph - N/A   Mostly Cloudy
12:53 PM 82.9 °F 89.4 °F 73.9 °F 74% 29.94 in 10.0 mi SSE 11.5 mph - N/A   Scattered Clouds
1:53 PM 82.9 °F 89.4 °F 73.9 °F 74% 29.94 in 10.0 mi SSE 10.4 mph - N/A   Scattered Clouds
2:53 PM 82.9 °F 89.4 °F 73.9 °F 74% 29.92 in 10.0 mi SSE 9.2 mph - N/A   Scattered Clouds
3:53 PM 81.0 °F 86.2 °F 73.9 °F 79% 29.91 in 10.0 mi SE 10.4 mph - N/A   Scattered Clouds
4:53 PM 80.1 °F 84.5 °F 73.9 °F 81% 29.90 in 10.0 mi SE 12.7 mph - N/A   Scattered Clouds
5:53 PM 79.0 °F - 73.9 °F 84% 29.91 in 10.0 mi ESE 6.9 mph - N/A   Scattered Clouds
6:53 PM 79.0 °F - 75.0 °F 88% 29.93 in 10.0 mi ESE 8.1 mph - N/A   Scattered Clouds
7:53 PM 78.1 °F - 75.0 °F 90% 29.94 in 10.0 mi SE 5.8 mph - N/A   Scattered Clouds
8:53 PM 78.1 °F - 75.0 °F 90% 29.96 in 10.0 mi ESE 3.5 mph - N/A   Mostly Cloudy
9:53 PM 78.1 °F - 75.0 °F 90% 29.97 in 10.0 mi SE 6.9 mph - N/A   Mostly Cloudy
10:53 PM 79.0 °F - 75.0 °F 88% 29.95 in 10.0 mi SE 9.2 mph - N/A   Clear
11:17 PM 78.8 °F - 75.2 °F 89% 29.97 in 10.0 mi SSE 8.1 mph - N/A   Scattered Clouds
11:26 PM 78.8 °F - 75.2 °F 89% 29.97 in 10.0 mi SSE 8.1 mph - N/A   Mostly Cloudy
11:53 PM 79.0 °F - 75.0 °F 88% 29.97 in 10.0 mi SSE 6.9 mph - N/A   Mostly Cloudy